Regional Weather Roundup
Issued by NWS Newport/Morehead, NC

Current Version | Previous Version | Text Only | Print | Product List | Glossary On
Versions: 1 2 3 4 5 6 7 8 9 10 11 12 13 14 15 16 17 18 19 20 21 22 23 24 25 26 27 28 29 30 31 32 33 34 35 36 37 38 39 40 41 42 43 44 45 46 47 48 49 50
000 ASUS42 KMHX 011513 RWRMHX WEATHER ROUNDUP FOR EASTERN NORTH CAROLINA NATIONAL WEATHER SERVICE NEWPORT/MOREHEAD CITY NC 1100 AM EDT WED JUL 01 2015 NOTE: "FAIR" INDICATES FEW OR NO CLOUDS BELOW 12,000 FEET WITH NO SIGNIFICANT WEATHER AND/OR OBSTRUCTIONS TO VISIBILITY NCZ015>017-031-032-045>047-102-103-011600- NORTH COAST CITY SKY/WX TMP DP RH WIND PRES REMARKS EDENTON N/A 79 69 71 W7 29.94F ELIZABETH CITY SUNNY 81 70 69 W9 29.93S KITTY HAWK SUNNY 84 69 59 SW8 29.93S MANTEO SUNNY 82 69 64 W9 29.95S $$ NCZ045>047-081-094-103-104-011600- CENTRAL COAST CITY SKY/WX TMP DP RH WIND PRES REMARKS FRISCO SUNNY 80 71 74 SW13 29.97R SWANQUARTER N/A 81 N/A N/A W10 29.94R $$ NCZ095-097-098-100-101-011600- SOUTHERN COAST CITY SKY/WX TMP DP RH WIND PRES REMARKS BEAUFORT SUNNY 81 72 74 SW14 29.97F CEDAR ISLAND N/A 82 N/A N/A S12 30.00S JACKSONVILLE MOSUNNY 79 69 71 SW6 29.98S PINEY ISLAND SUNNY N/A N/A N/A SW10 29.96F WILMINGTON MOSUNNY 79 71 76 W7 29.99S $$ NCZ011>013-027>030-043-044-078>080-089-090>093-098-011600- COASTAL PLAIN CITY SKY/WX TMP DP RH WIND PRES REMARKS AHOSKIE SUNNY 77 69 77 CALM 29.95S CLINTON CLOUDY 76 72 87 S3 29.99S ELIZABETHTOWN CLOUDY 74 70 88 CALM 30.00S GOLDSBORO MOSUNNY 79 70 75 VRB5 29.95F GREENVILLE SUNNY 79 70 73 SW5 29.98S HAVELOCK SUNNY 82 70 66 VRB6 29.98F KENANSVILLE CLOUDY 76 68 77 SW7 30.00S KINSTON MOSUNNY 79 68 69 SW7 29.98F NEW BERN MOSUNNY 79 70 74 VRB6 29.98F RICHLANDS CLOUDY 79 66 65 SW5 29.99S ROCKY MOUNT SUNNY 80 69 69 SW8 29.96S WASHINGTON SUNNY 78 69 73 SW5 29.97S WHITEVILLE CLOUDY 74 69 84 SW3 30.00S $$ AMZ130-135-150-152-154-156-158-170-250-252-270-ANZ085-086-088-633-658-670-011600- MARINE OBSERVATIONS STATION/POSITION TIME TEMP WIND PRES WAVE SWELL AIR SEA DIR/SP/G HT/PER HT/PER (UTC) (F) (DEG/KT/KT) (MB) (FT/S) (FT/S) CHESAPEAKE LIGHT 1500 76 230/ 10/ 11 1013.5 64 E VA BEACH 1450 77 76 240/ 14/ 16 1013.0 5/ 8 3/ 8 DUCK 1400 77 59 240/ 14/ 17 1012.8 2 E DUCK 1411 69 N/A 2/ 8 OREGON INLET 1400 80 81 230/ 15/ 18 1013.8 13E OREGON INLT 1500 73 N/A 4/ 7 HATTERAS CG 1400 80 81 230/ 9/ 14 1014.4 DIAMOND BUOY 1450 80 82 230/ 21/ 25 1014.5 5/ 6 3/13 CAPE LOOKOUT 1500 81 250/ 11/ 17 1015.1 BEAUFORT LAB 1400 79 80 260/ 7/ 13 1014.5 30 SE NEW RVR IN 1408 80 81 260/ 16/ 19 1015.6 27 SE WRIGHTSVLE 1400 80 250/ 16/ 17 N/A 5 SE WRIGHTSVLE 1408 79 80 250/ 12/ 14 1015.2 225 S CAPE HAT 1450 82 80 230/ 12/ 14 1019.2 6/ 7 5/ 7 41 SE CHARLESTON 1450 79 82 250/ 17/ 19 1016.3 5/ 9 3/ 9 $$

USA.gov is the U.S. government's official web portal to all federal, state and local government web resources and services.